Weather History for Opa Locka, FL

Change the Weather History Date:

Monday, February 3, 2014

  Actual Average Record
Temperature  
Mean Temperature 78 °F -  
Max Temperature 82 °F 77 °F 85 °F (1987)
Min Temperature 73 °F 60 °F 37 °F (1951)
Cooling Degree Days 12    
Growing Degree Days 28 (Base 50)    
Moisture  
Dew Point 72 °F    
Average Humidity 87    
Maximum Humidity 100    
Minimum Humidity 67    
Precipitation  
Precipitation 0.00 in - - ()
Sea Level Pressure  
Sea Level Pressure 30.08 in    
Wind  
Wind Speed 9 mph (SE)    
Max Wind Speed 16 mph    
Max Gust Speed 21 mph    
Visibility 10 miles    
Events      
Averages and records for this station are not official NWS values.
T = Trace of Precipitation, MM = Missing Value Source: NWS Daily Summary

Daily Weather History Graph

Daily Weather History Graph

Search for Another Location

Airport:

Trip Planner

Search our weather history database for the weather conditions in past years. The results will help you decide how hot, cold, wet, or windy it might be!

Date:

Astronomy

Feb. 03, 2014 Rise Set
Actual Time 7:04 AM EST 6:06 PM EST
Civil Twilight 6:40 AM EST 6:30 PM EST
Nautical Twilight 6:12 AM EST 6:57 PM EST
Astronomical Twilight 5:45 AM EST 7:24 PM EST
Moon 9:35 AM EST (2/3) 10:21 PM EST (2/3)
Length of Visible Light 11h 50m
Length of Day
11h 02m
Waxing Crescent, 19% of the Moon is Illuminated
Feb 3
Waxing Crescent
Feb 6
First Quarter
Feb 14
Full
Feb 22
Last Quarter
Mar 1
New

Hourly Weather History & Observations

Time (EST) Temp. Heat Index Dew Point Humidity Pressure Visibility Wind Dir Wind Speed Gust Speed Precip Events Conditions
12:53 AM 73.9 °F - 71.1 °F 91% 30.07 in 10.0 mi SE 11.5 mph - N/A   Clear
1:53 AM 73.9 °F - 73.0 °F 97% 30.06 in 10.0 mi SE 11.5 mph - N/A   Clear
2:53 AM 73.9 °F - 72.0 °F 93% 30.05 in 10.0 mi SE 10.4 mph - N/A   Mostly Cloudy
3:04 AM 73.4 °F - 71.6 °F 94% 30.05 in 10.0 mi SE 8.1 mph - N/A   Scattered Clouds
3:14 AM 73.4 °F - 71.6 °F 94% 30.05 in 10.0 mi SE 9.2 mph - N/A   Mostly Cloudy
3:53 AM 73.9 °F - 72.0 °F 93% 30.05 in 10.0 mi SE 6.9 mph - N/A   Mostly Cloudy
4:32 AM 73.4 °F - 71.6 °F 94% 30.05 in 10.0 mi SE 6.9 mph - N/A   Scattered Clouds
4:53 AM 73.9 °F - 72.0 °F 93% 30.05 in 10.0 mi SE 5.8 mph - N/A   Mostly Cloudy
5:11 AM 73.4 °F - 71.6 °F 94% 30.05 in 10.0 mi SE 6.9 mph - N/A   Mostly Cloudy
5:32 AM 73.4 °F - 71.6 °F 94% 30.06 in 10.0 mi SE 5.8 mph - N/A   Mostly Cloudy
5:53 AM 73.9 °F - 73.0 °F 97% 30.06 in 10.0 mi SE 4.6 mph - N/A   Overcast
6:18 AM 73.4 °F - 71.6 °F 94% 30.06 in 10.0 mi SE 5.8 mph - N/A   Mostly Cloudy
6:29 AM 73.4 °F - 71.6 °F 94% 30.07 in 10.0 mi SE 4.6 mph - N/A   Mostly Cloudy
6:44 AM 73.4 °F - 73.4 °F 100% 30.07 in 10.0 mi SE 8.1 mph - N/A   Scattered Clouds
6:53 AM 73.9 °F - 73.0 °F 97% 30.08 in 10.0 mi SE 8.1 mph - N/A   Partly Cloudy
7:53 AM 75.0 °F - 73.0 °F 94% 30.09 in 10.0 mi SE 6.9 mph - N/A   Partly Cloudy
8:24 AM 77.0 °F - 73.4 °F 89% 30.09 in 10.0 mi SE 8.1 mph - N/A   Mostly Cloudy
8:31 AM 77.0 °F - 73.4 °F 89% 30.10 in 10.0 mi SE 8.1 mph - N/A   Partly Cloudy
8:53 AM 79.0 °F - 73.0 °F 82% 30.11 in 10.0 mi SE 11.5 mph - N/A   Partly Cloudy
9:00 AM 78.8 °F - 73.4 °F 83% 30.10 in 10.0 mi SE 11.5 mph - N/A   Mostly Cloudy
9:53 AM 79.0 °F - 73.0 °F 82% 30.12 in 10.0 mi SE 16.1 mph 19.6 mph N/A   Overcast
10:43 AM 80.6 °F 85.4 °F 73.4 °F 79% 30.11 in 10.0 mi SE 12.7 mph - N/A   Mostly Cloudy
10:53 AM 81.0 °F 85.8 °F 73.0 °F 77% 30.12 in 10.0 mi ESE 12.7 mph - N/A   Mostly Cloudy
11:16 AM 82.4 °F 87.2 °F 71.6 °F 70% 30.11 in 10.0 mi SSE 12.7 mph - N/A   Mostly Cloudy
11:53 AM 80.1 °F 83.8 °F 72.0 °F 76% 30.11 in 10.0 mi SE 11.5 mph 18.4 mph N/A   Mostly Cloudy
12:53 PM 82.0 °F 86.7 °F 72.0 °F 71% 30.09 in 10.0 mi SSE 13.8 mph 20.7 mph 0.00 in   Scattered Clouds
1:53 PM 82.9 °F 87.5 °F 71.1 °F 67% 30.06 in 10.0 mi SSE 10.4 mph - N/A   Partly Cloudy
2:53 PM 82.9 °F 88.0 °F 72.0 °F 69% 30.04 in 10.0 mi SSE 13.8 mph - N/A   Mostly Cloudy
3:03 PM 80.6 °F 84.6 °F 71.6 °F 74% 30.03 in 10.0 mi SE 15.0 mph - N/A   Scattered Clouds
3:53 PM 81.0 °F 85.2 °F 72.0 °F 74% 30.04 in 10.0 mi SE 12.7 mph - N/A   Scattered Clouds
4:53 PM 79.0 °F - 73.0 °F 82% 30.05 in 10.0 mi ESE 10.4 mph - N/A   Scattered Clouds
5:53 PM 77.0 °F - 73.0 °F 88% 30.06 in 10.0 mi SE 8.1 mph - N/A   Scattered Clouds
6:53 PM 75.9 °F - 73.0 °F 91% 30.08 in 10.0 mi SE 4.6 mph - N/A   Partly Cloudy
7:14 PM 73.4 °F - 69.8 °F 88% 30.08 in 10.0 mi NW 5.8 mph - N/A   Mostly Cloudy
7:53 PM 73.9 °F - 69.1 °F 85% 30.09 in 10.0 mi North 3.5 mph - N/A   Overcast
8:15 PM 73.4 °F - 69.8 °F 88% 30.09 in 10.0 mi Calm Calm - N/A   Scattered Clouds
8:53 PM 73.0 °F - 69.1 °F 87% 30.10 in 10.0 mi Calm Calm - N/A   Clear
9:18 PM 73.4 °F - 69.8 °F 88% 30.10 in 10.0 mi Calm Calm - N/A   Mostly Cloudy
9:26 PM 73.4 °F - 69.8 °F 88% 30.10 in 10.0 mi Calm Calm - N/A   Scattered Clouds
9:53 PM 73.0 °F - 69.1 °F 87% 30.11 in 10.0 mi Calm Calm - N/A   Partly Cloudy
10:53 PM 73.0 °F - 71.1 °F 93% 30.11 in 10.0 mi East 3.5 mph - N/A   Overcast
11:53 PM 73.9 °F - 73.9 °F 100% 30.10 in 10.0 mi East 5.8 mph - N/A   Mostly Cloudy